Location: Tierra Monte Subdivision
(35.2092°N, 106.4864°W)
Time: 19:11:56
(UTC+00:00)

CENTAUR R/B - Pass Details

Date: 30 March 2020
Orbit: 761 x 1427 km, 63.5° (Epoch: 29 May)

Event Time Altitude Azimuth Distance (km) Brightness Sun altitude
Exits shadow 11:30:45 - 192° (SSW) 2,760 4.6 -17.6°
Reaches altitude 10° 11:31:41 10° 189° (S) 2,415 4.3 -17.4°
Maximum altitude 11:37:03 52° 114° (ESE) 1,114 3.1 -16.4°
Drops below altitude 10° 11:43:16 10° 40° (NE) 2,799 5.8 -15.1°
Sets 11:46:09 0° 36° (NE) 3,862 6.5 -14.6°
